[[{"header":{"parameterUnit":"m.s-1","parameterCategory":1,"la1":30.2991,"la2":30.254,"lo1":-89.0895,"lo2":-89.0444,"dy":0.0017,"dx":0.0017,"nx":28,"ny":28,"refTime":"2024-08-20T09:00:00:Z","depth":0,"parameterNumber":2,"parameterNumberName":"U-component_of_WINDS"},"data":[0,0,0,0,0,0,0,0,0,0,0,0,0,0,0,0,0,0,0,0,0,0,0,0,0,0,0,0,0,0,0,0,0,0,0,0,0,0,0,0,0,0,0,0,0,0,0,0,0,0,0,0,0,0,0,0,0,0,1.0272,1.0272,0,1.0224,1.0223,1.0223,1.0225,1.0226,1.0227,1.0227,1.0171,1.0169,1.0167,0,0,0,0,0,0,0,0,0,0,0,0,0,1.036,1.0359,1.0272,1.0271,1.0271,1.0224,1.0223,1.0223,1.0225,1.0226,1.0227,1.0228,1.0172,1.0169,1.0167,0,0,0,0,0,0,0,0,0,0,0,0,0,1.0318,1.0358,1.0272,1.0267,1.0266,1.0224,1.0223,1.0222,1.0225,1.0226,1.0227,1.0228,1.0173,1.0169,1.0166,1.0125,0,0,1.0156,1.0155,0,0,0,0,0,0,0,0,1.032,1.0315,1.0268,1.0267,1.0266,1.0232,1.0234,1.0189,1.0225,1.024,1.0227,1.0229,1.019,1.0185,1.0174,1.0122,1.012,1.0156,1.0154,1.0153,1.0152,0,0,0,0,0,0,0,1.0323,1.0317,1.0253,1.0267,1.0266,1.0265,1.026,1.0225,1.0209,1.0239,1.0239,1.0234,1.0189,1.0177,1.0172,1.0119,1.0156,1.0153,1.0151,1.015,1.003,1.0029,0,0,0,0,0,0,1.0328,1.0319,1.0254,1.0251,1.0297,1.0262,1.0257,1.0242,1.021,1.0206,1.0233,1.0234,1.0182,1.0176,1.017,1.0119,1.0153,1.015,1.0148,1.0031,1.0029,1.0028,0,0,0,0,0,0,1.033,1.0322,1.0256,1.0285,1.0277,1.026,1.0242,1.024,1.0227,1.0205,1.0202,1.0223,1.0183,1.0175,1.0136,1.0117,1.0148,1.0145,1.0032,1.003,1.0029,1.0016,0,0,0,0,0,0,1.0333,1.0323,1.0309,1.0285,1.0275,1.0225,1.0241,1.0238,1.0223,1.0224,1.0195,1.0192,1.0183,1.0141,1.0133,1.0113,1.0143,1.0034,1.0032,1.0029,1.0018,1.0014,1.001,0,0,0,0,0,1.0336,1.0305,1.0308,1.03,1.0257,1.0224,1.0218,1.021,1.0221,1.0205,1.0191,1.0193,1.0121,1.0137,1.0128,1.0107,1.0035,1.0032,1.003,1.0019,1.0014,1.001,0,0,0,0,0,0,1.0324,1.0302,1.0305,1.0266,1.0247,1.0224,1.0204,1.0205,1.0181,1.0183,1.0172,1.0166,1.0127,1.0113,1.0132,1.0064,1.0079,1.0074,1.0075,1.007,1.0066,1.0069,1.014,0,0,0,0,0,1.0318,1.0295,1.0276,1.0244,1.0234,1.0221,1.0206,1.0202,1.0181,1.0172,1.0155,1.0133,1.0105,1.0087,1.006,1.0017,1.0009,0.9997,0.9994,0.9991,0.9986,0.996,0.9954,1.0019,1.0019,1.0019,0,0,1.0303,1.0288,1.0274,1.0241,1.0226,1.02,1.0214,1.0186,1.0166,1.0167,1.013,1.0117,1.0091,1.005,1.003,1.0037,0.9967,0.9987,0.9985,0.9981,0.9957,0.995,0.9945,1.0017,1.0017,1.0018,0,0,1.0263,1.0251,1.0222,1.0207,1.0185,1.0176,1.017,1.0147,1.0139,1.0102,1.0102,1.0077,1.003,1.0012,0.9996,0.995,0.995,0.9942,0.9921,0.9896,0.9891,0.9886,0.9868,0.9862,0.9938,0.9938,0.9938,0,1.0247,1.021,1.0206,1.0179,1.0163,1.0166,1.0136,1.0121,1.009,1.0079,1.0087,1.0029,1.0011,0.9965,0.9954,0.9942,0.9932,0.9944,0.9893,0.9888,0.9883,0.9866,0.9859,0.9937,0.9937,0.9937,0.9937,0,1.0191,1.0165,1.0144,1.0117,1.01,1.0071,1.0061,1.0043,1.0041,1.0031,0.9993,0.9973,0.9942,0.9931,0.9928,0.9884,0.9889,0.9895,0.9909,0.9876,0.9859,0.9853,0.9935,0.9936,0.9936,0.9936,0,0,1.014,1.0112,1.0104,1.0092,1.0068,1.0047,1.0018,0.999,0.9975,0.9954,0.9927,0.9888,0.9894,0.9877,0.9871,0.985,0.9813,0.9859,0.9858,0.9849,0.9761,0.9755,0.9747,0.9814,0.9813,0.9812,0.9763,0,1.0096,1.0046,1.0042,0.9996,0.9972,0.9975,0.9949,0.9931,0.9921,0.9897,0.9885,0.9857,0.9868,0.9857,0.9837,0.9822,0.9795,0.9826,0.9786,0.9785,0.9791,0.9739,0.9732,0.9687,0.9756,0.9755,0.9754,0,1.0037,1.0017,0.9969,0.9949,0.9939,0.9916,0.989,0.9868,0.9846,0.9841,0.9822,0.982,0.9787,0.9805,0.9759,0.978,0.9764,0.9755,0.9753,0.9747,0.9766,0.9729,0.9672,0.9665,0.9744,0.9745,0.9746,0,1.0003,0.9963,0.993,0.9919,0.9895,0.9879,0.9867,0.9848,0.9831,0.9808,0.9797,0.9769,0.9754,0.9732,0.9721,0.9735,0.9675,0.9692,0.9667,0.9667,0.9652,0.9653,0.959,0.9646,0.9646,0.9646,0.9646,0,0.9952,0.9923,0.9914,0.9893,0.9859,0.9855,0.9821,0.981,0.9792,0.9768,0.9769,0.9745,0.9734,0.9708,0.97,0.9662,0.9656,0.9648,0.9646,0.9647,0.9648,0.9634,0.9636,0.9644,0.9645,0.9645,0.9645,0,0.9907,0.99,0.9863,0.9845,0.9839,0.9815,0.9798,0.9776,0.9768,0.9737,0.9729,0.9714,0.9684,0.9673,0.9635,0.963,0.9585,0.9587,0.9593,0.9592,0.9567,0.9568,0.9491,0.9479,0.9545,0.9545,0.9544,0,0.9874,0.9852,0.9831,0.9816,0.9805,0.978,0.9764,0.9759,0.9741,0.9716,0.9697,0.9668,0.9644,0.9595,0.9579,0.955,0.9549,0.9524,0.9545,0.9546,0.9546,0.9547,0.9544,0.9519,0.9519,0.9518,0.9518,0,0.9816,0.9815,0.9792,0.9769,0.975,0.9731,0.9712,0.9699,0.9691,0.9671,0.9641,0.9623,0.9586,0.9555,0.9526,0.9512,0.9512,0.9512,0.9504,0.9504,0.9507,0.9503,0.958,0.9513,0.9514,0.9514,0.9514,0.9514,0.9775,0.9755,0.9737,0.9712,0.9698,0.9681,0.966,0.965,0.9626,0.9596,0.9595,0.9562,0.954,0.9502,0.9486,0.9459,0.9466,0.9455,0.9452,0.9449,0.9446,0.9514,0.9454,0.9454,0.9454,0.9455,0.9455,0,0.9715,0.9705,0.9682,0.9657,0.9637,0.9643,0.9622,0.9604,0.9576,0.9558,0.9535,0.95,0.9471,0.9454,0.9425,0.9406,0.9405,0.9398,0.9398,0.9394,0.9443,0.9452,0.9399,0.9399,0.9399,0.9399,0.9399,0.9399,0.9682,0.9648,0.9644,0.9602,0.9591,0.9561,0.9549,0.9532,0.9517,0.9479,0.9456,0.9446,0.9428,0.9397,0.937,0.9366,0.9353,0.9345,0.9341,0.9386,0.9391,0.9397,0.9405,0.9343,0.9343,0.9294,0.9294,0.9294]},{"header":{"parameterUnit":"m.s-1","parameterCategory":1,"la1":30.2991,"la2":30.254,"lo1":-89.0895,"lo2":-89.0444,"dy":0.0017,"dx":0.0017,"nx":28,"ny":28,"refTime":"2024-08-20T09:00:00:Z","depth":0,"parameterNumber":3,"parameterNumberName":"V-component_of_WINDS"},"data":[0,0,0,0,0,0,0,0,0,0,0,0,0,0,0,0,0,0,0,0,0,0,0,0,0,0,0,0,0,0,0,0,0,0,0,0,0,0,0,0,0,0,0,0,0,0,0,0,0,0,0,0,0,0,0,0,0,0,-3.7013,-3.7013,0,-3.7034,-3.7034,-3.7034,-3.6948,-3.6946,-3.6943,-3.6941,-3.6962,-3.6965,-3.6968,0,0,0,0,0,0,0,0,0,0,0,0,0,-3.6899,-3.6901,-3.7013,-3.7013,-3.7014,-3.7034,-3.7034,-3.7034,-3.6949,-3.6946,-3.6943,-3.694,-3.6961,-3.6965,-3.6968,0,0,0,0,0,0,0,0,0,0,0,0,0,-3.6937,-3.6902,-3.7013,-3.6973,-3.697,-3.7034,-3.7034,-3.7034,-3.6949,-3.6946,-3.6942,-3.6938,-3.696,-3.6964,-3.6969,-3.7072,0,0,-3.6982,-3.6984,0,0,0,0,0,0,0,0,-3.6935,-3.6941,-3.6979,-3.6976,-3.6972,-3.6984,-3.7001,-3.7047,-3.695,-3.6957,-3.6941,-3.6936,-3.6973,-3.6976,-3.6988,-3.7073,-3.7074,-3.6983,-3.6985,-3.6987,-3.6988,0,0,0,0,0,0,0,-3.6932,-3.694,-3.7021,-3.6979,-3.6976,-3.6954,-3.6955,-3.701,-3.6986,-3.6956,-3.695,-3.6954,-3.697,-3.6984,-3.6988,-3.7074,-3.6982,-3.6986,-3.6989,-3.6991,-3.7243,-3.7247,0,0,0,0,0,0,-3.6935,-3.6938,-3.702,-3.7022,-3.6944,-3.6959,-3.6961,-3.6984,-3.6985,-3.6982,-3.6957,-3.695,-3.6978,-3.6983,-3.6988,-3.7108,-3.6987,-3.6991,-3.6994,-3.7239,-3.7244,-3.7248,0,0,0,0,0,0,-3.6933,-3.6943,-3.702,-3.6978,-3.6986,-3.6965,-3.6993,-3.6987,-3.7,-3.6986,-3.6981,-3.6975,-3.6976,-3.6982,-3.7051,-3.7108,-3.6993,-3.6997,-3.7234,-3.724,-3.7246,-3.7349,0,0,0,0,0,0,-3.693,-3.6943,-3.6982,-3.698,-3.6989,-3.7083,-3.6996,-3.699,-3.7008,-3.6999,-3.7002,-3.6999,-3.6973,-3.7045,-3.7056,-3.7112,-3.7001,-3.7229,-3.7237,-3.7244,-3.7341,-3.7358,-3.7373,0,0,0,0,0,-3.6926,-3.7011,-3.6985,-3.6995,-3.7038,-3.7086,-3.7091,-3.706,-3.7013,-3.7052,-3.7042,-3.6998,-3.71,-3.7053,-3.7064,-3.7122,-3.7225,-3.7235,-3.7243,-3.7333,-3.7355,-3.7373,0,0,0,0,0,0,-3.7021,-3.701,-3.6981,-3.7067,-3.7078,-3.7072,-3.712,-3.7084,-3.7109,-3.7099,-3.706,-3.7061,-3.7137,-3.7136,-3.7084,-3.7221,-3.7154,-3.7166,-3.7219,-3.7239,-3.7255,-3.7253,-3.7004,0,0,0,0,0,-3.7051,-3.7092,-3.708,-3.7158,-3.7165,-3.7142,-3.7162,-3.7137,-3.7147,-3.7151,-3.7146,-3.7158,-3.7192,-3.7215,-3.7246,-3.734,-3.7339,-3.7385,-3.7402,-3.7415,-3.7426,-3.7474,-3.7495,-3.7278,-3.7278,-3.7278,0,0,-3.7116,-3.7115,-3.7143,-3.7176,-3.7182,-3.7225,-3.7146,-3.7195,-3.7226,-3.7158,-3.7223,-3.722,-3.723,-3.7312,-3.7348,-3.7314,-3.7485,-3.7427,-3.7437,-3.7441,-3.7486,-3.7506,-3.7525,-3.7284,-3.7283,-3.7282,0,0,-3.7254,-3.7258,-3.7322,-3.7329,-3.7339,-3.7323,-3.7338,-3.7337,-3.7332,-3.7397,-3.7347,-3.7383,-3.7443,-3.7452,-3.7464,-3.7605,-3.7566,-3.7616,-3.7701,-3.7749,-3.7766,-3.7781,-3.783,-3.7849,-3.7627,-3.7627,-3.7627,0,-3.7333,-3.7395,-3.736,-3.7412,-3.7428,-3.7368,-3.7432,-3.7441,-3.746,-3.7473,-3.7434,-3.7508,-3.751,-3.7593,-3.7627,-3.764,-3.7656,-3.7616,-3.7766,-3.7781,-3.7794,-3.7841,-3.786,-3.7633,-3.7633,-3.7632,-3.7631,0,-3.7491,-3.7535,-3.7586,-3.7605,-3.7627,-3.7685,-3.7658,-3.7684,-3.7657,-3.7645,-3.7711,-3.7712,-3.7741,-3.7759,-3.7733,-3.7838,-3.7816,-3.7773,-3.7705,-3.7821,-3.7865,-3.7883,-3.7642,-3.764,-3.7638,-3.7637,0,0,-3.7691,-3.7689,-3.7708,-3.7716,-3.7721,-3.7754,-3.7809,-3.7838,-3.786,-3.7876,-3.792,-3.7972,-3.7931,-3.7946,-3.792,-3.7963,-3.8073,-3.7913,-3.7913,-3.7943,-3.8188,-3.822,-3.8242,-3.8047,-3.805,-3.8053,-3.8187,0,-3.7826,-3.792,-3.7889,-3.7984,-3.8023,-3.7967,-3.8014,-3.8023,-3.8013,-3.8045,-3.8033,-3.807,-3.8014,-3.8022,-3.8062,-3.8052,-3.8122,-3.8041,-3.8088,-3.809,-3.8087,-3.8264,-3.8299,-3.8426,-3.8203,-3.8206,-3.8208,0,-3.7997,-3.8018,-3.8117,-3.8114,-3.813,-3.8173,-3.8196,-3.8228,-3.8236,-3.8225,-3.8241,-3.8206,-3.8259,-3.8191,-3.8264,-3.821,-3.8227,-3.8225,-3.8229,-3.8232,-3.8156,-3.8272,-3.8465,-3.8484,-3.8235,-3.8233,-3.8231,0,-3.8132,-3.8185,-3.8251,-3.8259,-3.8258,-3.829,-3.8291,-3.8295,-3.8314,-3.8334,-3.8345,-3.8372,-3.8386,-3.8407,-3.8381,-3.8334,-3.8457,-3.8387,-3.845,-3.8451,-3.8478,-3.8477,-3.8677,-3.849,-3.849,-3.8489,-3.8489,0,-3.8286,-3.8349,-3.8311,-3.8352,-3.842,-3.8383,-3.8452,-3.8446,-3.845,-3.8489,-3.8441,-3.8478,-3.8441,-3.8474,-3.8453,-3.8516,-3.8523,-3.8516,-3.851,-3.852,-3.8521,-3.8531,-3.8521,-3.8494,-3.8493,-3.8492,-3.8491,0,-3.8449,-3.8426,-3.8494,-3.8487,-3.8487,-3.8537,-3.8531,-3.8568,-3.8554,-3.8603,-3.8612,-3.8591,-3.8627,-3.8603,-3.864,-3.8625,-3.8708,-3.8689,-3.8705,-3.87,-3.8764,-3.8759,-3.8977,-3.9004,-3.88,-3.8802,-3.8804,0,-3.8549,-3.8596,-3.8594,-3.8616,-3.862,-3.8656,-3.8674,-3.864,-3.8661,-3.8673,-3.8709,-3.8741,-3.8765,-3.8826,-3.8814,-3.8841,-3.8823,-3.8898,-3.8827,-3.8836,-3.8824,-3.8822,-3.8826,-3.8912,-3.8915,-3.8917,-3.8918,0,-3.8729,-3.8715,-3.8744,-3.8768,-3.8792,-3.8809,-3.8823,-3.8844,-3.8809,-3.8835,-3.8872,-3.8891,-3.8928,-3.896,-3.8983,-3.8984,-3.8946,-3.8941,-3.8957,-3.8968,-3.8975,-3.8972,-3.8744,-3.8936,-3.8934,-3.8933,-3.8932,-3.8931,-3.8863,-3.8902,-3.8906,-3.8939,-3.8946,-3.8959,-3.8993,-3.8983,-3.9013,-3.904,-3.9018,-3.9062,-3.9067,-3.9094,-3.9099,-3.9133,-3.9102,-3.9126,-3.9131,-3.9138,-3.9147,-3.897,-3.9137,-3.9136,-3.9136,-3.9135,-3.9135,0,-3.9041,-3.904,-3.9071,-3.9091,-3.9117,-3.9078,-3.9091,-3.9115,-3.9154,-3.9163,-3.9187,-3.9229,-3.926,-3.9249,-3.9277,-3.9306,-3.9289,-3.9314,-3.9312,-3.9312,-3.9172,-3.9156,-3.9327,-3.9327,-3.9327,-3.9327,-3.9327,-3.9327,-3.9136,-3.9199,-3.9185,-3.925,-3.9249,-3.9291,-3.9302,-3.9314,-3.932,-3.9369,-3.9394,-3.9387,-3.9388,-3.9415,-3.9441,-3.9437,-3.945,-3.9482,-3.9472,-3.9341,-3.9322,-3.9304,-3.9288,-3.9485,-3.9485,-3.9608,-3.9609,-3.961]}]]